Location: L�Ave Maria
(50.7161°N, 1.5911°E)
Time: 13:19:09
(UTC+00:00)

Genesis I - Pass Details

Date: 10 July 2020
Orbit: 509 x 513 km, 64.5° (Epoch: 06 August)

Event Time Altitude Azimuth Distance (km) Brightness Sun altitude
Rises 22:25:14 0° 236° (SW) 2,616 6.7 -14.3°
Reaches altitude 10° 22:27:27 10° 242° (WSW) 1,733 5.8 -14.4°
Maximum altitude 22:31:13 48° 318° (NW) 678 4.2 -14.7°
Drops below altitude 10° 22:35:00 10° 34° (NNE) 1,741 6.4 -14.9°
Sets 22:37:14 0° 40° (NE) 2,630 7.2 -15.0°
